Погода в Хайларе

Китай     49°11′35″N   119°43′45″E
темп.,
°C
ветер,
м/с
пор.,
м/с
влажн.,
%
обл.,
%
осадки,
мм/ч
давл.,
гПа
погр.,
м
22 января, сб
сб2223:00−19с1198100 0.0 103433
02:00−19сз1199100 0.2 103428
05:00−19з1199100 0.3 103417
08:00−18з1298100 0.7 103478
11:00−16з2291100 0.3 1035253
14:00−15з3389100 0.4 1034369
17:00−21зюз2210079 0.0 103712
20:00−24юз22100100 0.1 103915
23 января, вс
вс2323:00−24ююз22100100 0.1 104017
02:00−25ю22100100 0.1 104119
05:00−25ю2299100 0.1 104121
08:00−27ю2210099 0.1 104217
11:00−21ю1195100 0.0 1041136
14:00−18вюв1190100 0.0 1038187
17:00−21в1197100 0.0 10379
20:00−22в1199100 0.0 103810
24 января, пн
пн2423:00−22всв1197100 0.0 103724
02:00−22всв1197100 0.0 103524
05:00−22св1197100 0.0 103410
08:00−22всв0097100 0.0 10339
11:00−18с1188100 0.0 1031152
14:00−15сз228688 0.0 1029232
17:00−17зсз1196100 0.0 102912
20:00−18з1299100 0.1 102925
25 января, вт
вт2523:00−19з1199100 0.2 102910
02:00−19зюз1199100 0.4 102922
05:00−19юз1199100 0.2 102813
08:00−20юз1199100 0.3 102914
11:00−16зюз2291100 0.1 1028266
14:00−14з2388100 0.3 1027396
17:00−17з229899 0.1 10289
20:00−22зюз2210089 0.1 10309
26 января, ср
ср2623:00−24юз11100100 0.1 10329
02:00−25ююз11100100 0.1 103310
05:00−25ю22100100 0.1 103413
08:00−27ю11100100 0.1 103511
11:00−20юз239696 0.0 1034172
14:00−18юз238983 0.0 1033263
17:00−25ююз2210054 0.0 103610
20:00−27ю2210079 0.0 103812